sat.trackr.live / text

‹ back to catalog

STARLINK-35382

NORAD 66019 · 2025-232Q

PAYLOAD ACTIVE UNKNOWN

§ Identity

Operator
Country
US
Launch date
2025-10-16
Launch site
AFETR
Launch vehicle
Mass (kg)
RCS (m²)

Purposes: comms

External: N2YO · Heavens-Above · Gunter

§ Orbital elements

Epoch: 2026-09-20T05:25:35.979168Z

Period
93.85 min
Inclination
53.1590°
Eccentricity
0.0001417
Mean motion
15.34405448 rev/d
Perigee alt
461.7 km
Apogee alt
463.7 km
Semi-major
6,840.8 km
B*
4.6368e-4
RAAN
277.2069°
Arg perigee
101.3399°
Mean anomaly
258.7763°
Rev number
5,326

§ Raw data

STARLINK-353821 66019U 25232Q   26263.22611087  .00015325  00000+0  46368-3 0  99972 66019  53.1590 277.2069 0001417 101.3399 258.7763 15.34405448 53261

JSON: /api/v1/satellites/66019 · /tle

For live sub-satellite position, see the globe view (requires WebGL).

§ Visibility from observer

Set your observer location to see the next 7 days of passes ≥ 10°. The values pass through the URL so the page stays shareable.

No JS? Fill the form by hand. The geolocation button needs JavaScript.